Regional Weather Roundup
Issued by NWS Sioux Falls, SD

Home | Current Version | Previous Version | Text Only | Print | Product List | Glossary On
Versions: 1 2 3 4 5 6 7 8 9 10 11 12 13 14 15 16 17 18 19 20 21 22 23 24 25 26 27 28 29 30 31 32 33 34 35 36 37 38 39 40 41 42 43 44 45 46 47 48 49 50
000
ASUS43 KFSD 050002
RWRFSD

WEATHER ROUNDUP FOR SE SOUTH DAKOTA/SW MINNESOTA/NW IOWA
NATIONAL WEATHER SERVICE SIOUX FALLS SD
700 PM CDT MON MAY 04 2015

NOTE: "FAIR" INDICATES FEW OR NO CLOUDS BELOW 12,000 FEET WITH NO
SIGNIFICANT WEATHER AND OR OBSTRUCTIONS TO VISIBILITY.


SDZ038>040-050-052>070-050100-
SOUTHEAST SOUTH DAKOTA

CITY           SKY/WX    TMP DP  RH WIND       PRES   REMARKS
BROOKINGS      CLOUDY    70  27  19 E9        30.15S
CHAMBERLAIN    NOT AVBL
HURON          PTSUNNY   70  25  18 SE12      30.12F
6HR MIN TEMP:  70; 6HR MAX TEMP:  75;

MADISON        FAIR      68  23  18 E15       30.14S
MITCHELL       CLOUDY    72  26  18 SE12      30.11F
6HR MIN TEMP:  70; 6HR MAX TEMP:  75;

SIOUX FALLS    CLOUDY    69  29  22 SE15      30.12F
6HR MIN TEMP:  68; 6HR MAX TEMP:  72;

WINNER         LGT RAIN  67  25  20 E9        30.11F
YANKTON        CLOUDY    64  41  42 SE8       30.09F
$$

MNZ071-072-080-081-089-090-097-098-050100-
SOUTHWEST MINNESOTA

CITY           SKY/WX    TMP DP  RH WIND       PRES   REMARKS
FAIRMONT       PTSUNNY   70  28  21 NE12      30.14S
JACKSON        PTSUNNY   68  21  17 NE9       30.16S
LUVERNE        CLOUDY    70  28  21 E13       30.14S
MARSHALL       PTSUNNY   70  25  18 E13G18    30.14S
6HR MIN TEMP:  68; 6HR MAX TEMP:  72;

MONTEVIDEO     PTSUNNY   70  28  21 SE12      30.17S
REDWOOD FALLS  PTSUNNY   70  26  19 NE7       30.15R
TRACY          PTSUNNY   70  28  20 E9        30.15S
WORTHINGTON    PTSUNNY   66  28  24 E12       30.15S
$$

IAZ001>003-012>014-020>022-031-032-NEZ013-014-SDZ071-050100-
NORTHWEST IOWA

CITY           SKY/WX    TMP DP  RH WIND       PRES   REMARKS
DENISON        LGT RAIN  55  55 100 NE13      30.10S
ESTHERVILLE    PTSUNNY   65  34  31 E15       30.14S
SIOUX CITY     CLOUDY    62  46  55 E14       30.10F
6HR MIN TEMP:  61; 6HR MAX TEMP:  70; 6HR PCP:  0.03;

SPENCER        CLOUDY    67  37  33 E12       30.13F
6HR MIN TEMP:  67; 6HR MAX TEMP:  71;

$$

ABBREVIATIONS USED IN REMARKS
   TC - TEMPERATURE IN CELSIUS
  WCI - WIND CHILL INDEX
   HX - HEAT INDEX
  VSB - VISIBILITY




USA.gov is the U.S. government's official web portal to all federal, state and local government web resources and services.